Wind_Speed
10 11 10 10 10 10 10 10 11 11 11 11 10 10 10 9 9 9 9 9 9 8 9 8 8 8 8 8 8 8 8 9 10 10 11 11 11 11 11 11 12 13 13 13
11 11 10 11 11 11 11 11 12 12 11 11 11 10 10 11 10 10 10 10 10 10 10 9 9 10 9 10 10 9 10 10 10 12 12 12 12 12 12 12 13 13 13 13
12 11 12 12 12 12 12 13 13 12 11 12 11 11 12 12 11 12 12 12 11 12 11 11 11 11 11 10 11 11 11 11 11 12 12 12 13 13 14 14 14 14 14 14
12 12 13 13 13 13 13 13 13 12 12 12 13 13 13 13 12 13 13 12 12 12 12 12 12 11 11 11 11 11 12 12 12 13 14 14 14 14 14 15 15 15 15 15
13 13 13 13 13 13 13 13 13 13 13 13 14 15 15 15 14 13 14 13 13 13 13 13 13 12 12 12 12 12 13 14 14 14 14 15 15 16 15 15 16 16 16 16
14 13 13 13 14 13 13 13 12 12 13 14 14 17 17 15 15 14 14 14 14 14 14 14 13 13 13 13 13 13 14 14 15 15 16 16 16 16 16 17 17 17 16 16
14 14 14 14 14 13 13 13 12 13 13 14 15 18 17 15 14 15 14 15 15 14 14 15 14 14 15 15 15 16 16 16 16 16 17 17 17 17 17 17 17 17 17 17
15 15 15 15 14 14 13 13 14 14 13 14 16 18 17 15 15 15 15 16 15 15 15 15 16 16 16 17 17 17 17 17 17 18 18 18 19 19 19 19 19 19 19 19
16 17 16 16 15 15 14 14 14 15 14 15 16 17 17 16 15 16 15 15 15 15 15 16 16 17 17 18 18 19 19 18 18 19 19 20 20 20 20 20 20 20 19 19
17 18 17 17 16 16 16 15 15 16 16 15 15 16 17 16 17 16 16 16 16 16 17 17 17 17 17 18 19 19 19 19 19 20 20 20 20 20 21 21 20 20 20 19
18 19 18 19 17 17 17 16 16 16 17 15 16 16 18 18 18 17 17 17 17 18 18 18 18 19 19 19 19 20 20 20 20 20 21 20 21 21 21 21 21 21 21 21
19 19 19 19 18 18 19 18 18 18 17 18 18 19 19 19 18 18 19 18 17 18 19 20 20 20 20 20 20 21 21 21 21 21 21 22 22 22 22 22 22 22 22 22
19 20 20 19 19 18 19 19 19 19 20 19 19 19 20 20 19 19 20 19 19 19 19 20 20 20 20 21 21 22 22 22 22 22 22 22 23 23 22 22 23 22 22 23
20 21 21 20 18 18 19 19 19 20 21 21 20 20 21 21 20 20 20 20 20 20 19 20 20 21 21 21 21 22 22 22 22 22 22 22 22 23 22 22 22 22 22 23
21 22 21 21 20 21 21 21 21 21 22 22 22 22 22 23 22 22 21 20 20 20 20 20 21 21 21 22 22 22 22 23 22 22 23 23 23 23 23 23 23 23 23 23
23 23 23 22 23 23 24 23 22 22 22 23 23 22 23 23 23 23 23 22 22 21 21 21 22 22 22 22 22 23 22 23 23 23 23 24 24 23 23 23 23 23 24 24
24 24 25 24 23 24 25 22 23 23 23 24 24 23 23 24 22 22 22 23 23 22 22 22 22 22 22 22 22 23 23 23 23 23 23 23 24 24 24 24 24 24 24 24
26 26 26 26 26 27 23 22 24 24 24 24 24 24 24 23 23 22 23 23 23 22 22 22 22 22 22 22 22 23 23 24 24 24 24 24 25 25 25 26 25 25 25 25
26 26 27 28 28 28 25 24 24 25 25 24 25 25 25 24 23 23 24 23 22 22 22 23 23 23 23 23 23 23 23 24 24 25 25 25 25 26 26 25 25 25 26 26
27 27 28 29 29 29 26 26 26 25 25 25 26 26 25 25 25 24 24 23 23 23 23 23 23 23 23 23 23 23 24 25 25 25 26 26 27 27 26 27 26 27 27 27
29 28 28 29 30 30 28 27 27 27 26 26 25 26 26 26 26 25 25 24 24 24 24 24 24 24 24 24 24 24 25 25 26 26 27 27 28 28 28 28 28 28 28 29
30 29 29 29 30 29 28 28 29 28 28 27 26 26 26 26 26 26 26 25 25 25 25 25 24 24 24 24 25 25 25 26 27 27 27 28 29 29 29 30 30 30 31 31
31 31 30 30 30 28 28 29 29 29 29 29 29 28 27 27 27 27 28 27 26 26 26 26 25 25 26 26 26 26 26 27 28 28 28 28 29 30 31 31 31 32 32 32
33 33 33 33 32 30 29 30 30 31 30 30 30 29 28 28 28 28 28 28 28 28 27 26 26 27 27 27 27 27 28 28 29 29 30 30 31 31 32 32 33 33 33 33
33 34 35 35 33 32 32 32 32 32 32 31 31 31 30 30 29 29 29 29 29 28 28 28 28 28 28 28 28 28 29 29 30 31 31 32 32 33 33 34 34 33 33 33
32 33 35 36 35 35 34 34 34 33 33 33 32 32 32 31 31 30 30 29 29 29 28 28 29 29 29 29 29 29 30 31 32 32 33 33 34 34 34 34 34 33 34 33
Wind_Direction
253 255 257 258 260 263 266 268 270 275 277 275 272 273 279 283 284 284 283 284 289 290 290 291 292 290 289 293 298 299 300 304 305 306 307 309 309 307 307 305 304 304 302 302
252 253 256 259 258 258 257 260 266 271 272 275 274 276 279 281 280 280 281 282 284 284 285 288 289 290 293 292 294 298 300 301 302 303 304 307 307 304 303 305 303 302 300 298
252 255 257 257 256 256 254 256 260 264 269 276 276 276 278 275 277 278 277 277 275 278 282 285 286 289 290 291 294 296 298 301 302 304 304 304 306 306 305 305 303 301 298 295
253 254 257 256 255 256 254 254 257 261 262 271 278 277 279 282 281 277 276 276 276 277 280 283 283 284 285 287 292 296 299 301 302 304 305 303 305 307 309 308 305 303 299 295
256 255 258 257 254 254 253 254 253 257 259 260 267 273 274 278 280 278 277 275 275 275 277 281 283 283 282 281 288 294 297 299 301 303 305 305 305 306 306 306 304 304 301 296
255 257 257 257 257 254 253 252 251 256 261 261 266 271 272 276 279 278 275 273 275 275 275 278 281 283 282 282 286 292 295 296 299 301 303 303 304 304 304 304 304 302 301 299
255 256 257 256 255 253 252 251 250 257 262 262 266 269 272 274 277 278 277 273 273 276 275 276 278 280 281 282 284 288 293 294 297 299 300 301 301 301 301 302 302 301 299 298
261 259 257 256 255 255 251 249 245 246 254 263 265 267 271 276 277 277 274 273 273 275 277 277 278 280 280 280 281 286 291 293 296 297 297 298 298 298 298 299 300 299 296 294
256 257 257 256 254 254 251 248 248 245 250 259 262 268 271 273 274 275 275 276 277 277 278 278 280 281 280 280 282 286 289 291 294 296 297 297 299 299 298 298 298 297 295 294
256 256 257 256 254 252 250 249 245 243 245 253 258 264 274 274 275 275 276 278 278 277 277 279 281 282 282 282 283 286 288 290 293 295 296 297 298 299 298 296 296 295 294 292
255 256 258 258 254 254 251 249 248 245 244 245 255 259 267 273 279 278 279 281 281 281 279 280 282 281 282 282 283 285 287 290 292 294 297 298 300 300 300 298 297 295 294 291
255 254 257 260 258 253 251 250 248 247 245 244 251 258 268 272 276 277 278 281 282 281 280 280 280 281 282 283 283 284 287 290 291 293 296 297 300 301 301 300 298 297 294 292
256 253 255 257 258 255 253 252 249 248 249 248 251 260 267 271 275 276 277 279 281 282 282 283 282 281 282 283 284 284 286 289 291 293 295 297 299 301 301 301 301 299 297 294
254 253 251 250 253 257 254 252 251 251 252 254 254 258 264 270 274 276 277 279 280 281 282 284 285 284 283 283 285 286 287 288 292 293 294 296 299 300 300 300 301 300 298 296
252 251 251 251 250 253 258 257 256 254 255 255 254 256 261 266 272 275 277 278 278 279 281 283 284 286 285 284 285 286 288 290 291 292 293 295 297 298 297 298 299 299 297 297
252 252 253 253 253 255 257 258 258 259 259 258 258 262 265 267 272 275 276 277 277 279 280 282 284 285 284 285 285 285 287 289 289 290 291 294 296 299 298 299 299 299 298 296
253 253 255 255 256 256 255 259 262 262 260 259 259 262 265 269 274 277 278 278 279 280 281 282 284 284 284 284 284 284 286 287 288 289 290 292 294 297 299 299 297 297 296 295
254 253 256 258 258 258 260 262 264 264 263 261 262 263 267 271 273 275 276 278 279 281 281 282 283 283 283 283 283 284 285 285 286 287 288 290 292 294 296 298 296 295 295 294
254 254 255 258 259 260 261 263 264 265 263 261 262 263 266 270 272 274 276 278 280 282 282 282 282 281 281 281 283 284 284 285 286 287 288 289 290 292 293 296 296 295 295 295
253 253 254 256 259 261 263 264 265 266 266 263 262 263 265 269 271 273 276 278 279 279 280 282 282 281 280 280 281 283 284 286 288 289 289 290 291 292 293 294 295 295 295 294
254 253 254 256 258 261 263 264 264 265 267 265 264 264 264 267 269 272 275 276 278 280 280 281 281 281 281 281 283 284 286 287 287 288 289 290 291 292 293 293 294 295 295 293
255 256 256 257 259 260 262 264 262 264 266 267 266 264 265 267 269 272 273 275 276 279 280 281 281 281 282 282 283 285 286 287 288 288 288 289 290 292 292 293 294 294 294 293
253 254 257 258 259 261 259 260 261 262 264 266 266 266 266 267 269 271 273 275 276 278 279 279 279 280 281 281 281 283 285 286 287 288 288 289 291 292 292 292 294 295 295 295
253 253 254 254 256 257 257 258 259 260 261 264 266 266 266 266 268 271 273 275 276 277 277 277 278 279 280 281 281 282 284 285 286 287 288 290 291 292 292 292 294 294 295 294
257 255 254 254 255 257 257 259 258 258 260 263 264 263 265 266 267 269 271 273 275 275 276 277 278 279 279 280 281 282 283 284 286 288 289 290 291 292 294 294 294 294 293 294
260 259 258 256 255 257 259 259 259 259 260 262 263 262 263 264 265 267 269 272 274 275 275 276 277 278 279 280 281 283 285 285 286 288 289 290 290 291 292 294 294 294 294 293
Height
5841 5843 5843 5844 5844 5845 5846 5846 5846 5847 5846 5847 5847 5847 5847 5847 5847 5847 5847 5847 5846 5846 5846 5846 5846 5846 5846 5846 5845 5845 5844 5843 5843 5842 5841 5841 5840 5839 5838 5837 5836 5835 5834 5833
5839 5839 5841 5841 5842 5842 5843 5844 5844 5845 5845 5844 5844 5844 5845 5845 5845 5845 5845 5845 5845 5845 5844 5845 5845 5845 5844 5844 5844 5843 5842 5842 5841 5840 5839 5839 5838 5837 5836 5835 5834 5833 5832 5831
5835 5838 5838 5838 5839 5839 5840 5841 5842 5842 5842 5842 5842 5843 5843 5842 5843 5843 5843 5843 5843 5842 5842 5843 5843 5843 5842 5842 5842 5841 5840 5840 5839 5838 5837 5836 5835 5834 5833 5832 5831 5830 5828 5828
5832 5834 5834 5835 5835 5836 5837 5838 5839 5840 5840 5840 5841 5840 5840 5840 5841 5841 5841 5841 5840 5840 5840 5840 5840 5841 5840 5840 5839 5838 5838 5837 5836 5836 5835 5834 5832 5831 5830 5829 5828 5826 5825 5824
5829 5830 5831 5831 5832 5833 5834 5835 5836 5837 5837 5837 5838 5837 5838 5837 5837 5838 5838 5838 5838 5838 5838 5838 5838 5838 5838 5838 5837 5836 5836 5835 5834 5833 5832 5831 5830 5828 5827 5826 5824 5823 5822 5820
5826 5826 5827 5828 5829 5830 5831 5832 5833 5833 5833 5834 5835 5835 5835 5834 5835 5835 5835 5836 5835 5836 5836 5836 5835 5835 5835 5835 5834 5834 5833 5832 5831 5830 5829 5828 5826 5825 5824 5822 5821 5819 5818 5817
5822 5823 5823 5825 5825 5827 5828 5829 5830 5830 5830 5831 5832 5831 5832 5832 5832 5832 5832 5832 5833 5833 5833 5833 5833 5832 5832 5832 5831 5831 5830 5829 5828 5827 5826 5824 5823 5822 5820 5819 5817 5816 5814 5813
5818 5819 5820 5821 5822 5823 5824 5826 5827 5828 5828 5829 5829 5828 5829 5829 5829 5829 5829 5829 5829 5829 5829 5829 5829 5829 5829 5828 5828 5827 5827 5826 5824 5823 5822 5821 5819 5818 5816 5815 5813 5811 5810 5809
5814 5816 5816 5817 5818 5820 5820 5821 5823 5824 5824 5825 5825 5825 5825 5826 5826 5826 5826 5825 5825 5826 5826 5826 5825 5825 5825 5824 5823 5823 5822 5822 5820 5819 5818 5817 5815 5813 5812 5810 5809 5807 5806 5804
5810 5811 5812 5813 5814 5815 5817 5817 5819 5819 5820 5821 5823 5823 5822 5822 5822 5822 5822 5822 5822 5822 5822 5822 5821 5821 5820 5820 5819 5818 5817 5817 5816 5815 5813 5812 5810 5809 5807 5806 5804 5802 5801 5799
5805 5807 5808 5809 5810 5811 5812 5813 5814 5815 5816 5818 5818 5821 5819 5818 5818 5818 5818 5818 5818 5818 5818 5817 5817 5816 5815 5815 5814 5813 5813 5812 5811 5810 5809 5807 5806 5804 5802 5801 5799 5797 5796 5794
5800 5802 5802 5804 5805 5806 5807 5808 5810 5811 5812 5813 5814 5817 5814 5814 5814 5814 5814 5814 5814 5813 5813 5812 5811 5811 5810 5809 5809 5808 5808 5807 5806 5805 5803 5802 5800 5799 5797 5795 5794 5792 5790 5789
5795 5797 5798 5799 5801 5802 5802 5803 5804 5806 5807 5808 5809 5813 5810 5809 5809 5809 5809 5809 5809 5808 5808 5807 5806 5805 5805 5804 5803 5802 5802 5801 5800 5799 5798 5796 5795 5793 5792 5790 5788 5786 5785 5783
5790 5791 5793 5795 5795 5796 5797 5798 5799 5801 5801 5803 5805 5806 5805 5804 5804 5804 5804 5804 5804 5803 5803 5802 5801 5800 5799 5799 5798 5797 5796 5795 5794 5794 5792 5791 5789 5788 5786 5784 5782 5781 5779 5777
5784 5785 5787 5788 5790 5791 5791 5793 5794 5795 5796 5798 5799 5800 5799 5799 5799 5799 5799 5799 5799 5798 5797 5797 5796 5795 5794 5793 5792 5792 5791 5789 5788 5788 5787 5786 5784 5782 5781 5779 5777 5775 5773 5771
5778 5780 5781 5783 5784 5785 5786 5787 5789 5790 5791 5792 5793 5794 5794 5794 5793 5793 5793 5793 5793 5793 5792 5791 5790 5789 5788 5787 5786 5786 5785 5784 5783 5782 5781 5780 5778 5777 5775 5773 5771 5769 5767 5766
5773 5774 5776 5777 5778 5779 5780 5782 5783 5784 5785 5786 5787 5789 5788 5788 5788 5788 5788 5787 5787 5787 5786 5785 5784 5783 5782 5781 5780 5780 5779 5778 5777 5776 5775 5774 5772 5771 5769 5767 5765 5763 5761 5760
5767 5768 5769 5770 5772 5772 5777 5777 5777 5777 5778 5780 5780 5781 5782 5782 5782 5782 5782 5782 5781 5781 5780 5779 5778 5777 5776 5775 5774 5774 5773 5772 5771 5770 5769 5768 5766 5765 5763 5761 5759 5757 5755 5753
5760 5761 5762 5763 5764 5765 5769 5770 5770 5771 5772 5774 5774 5775 5776 5776 5776 5776 5776 5775 5775 5775 5774 5773 5772 5771 5770 5769 5768 5768 5766 5765 5764 5764 5762 5761 5759 5757 5756 5754 5752 5750 5748 5746
5753 5754 5756 5757 5757 5759 5763 5764 5763 5765 5765 5767 5767 5768 5769 5770 5770 5770 5769 5769 5769 5768 5767 5766 5766 5765 5764 5763 5762 5761 5760 5759 5758 5757 5756 5754 5753 5751 5749 5747 5745 5743 5741 5739
5745 5746 5748 5749 5750 5752 5755 5756 5757 5759 5760 5760 5760 5761 5762 5762 5763 5763 5762 5762 5762 5761 5761 5760 5759 5758 5758 5757 5756 5755 5754 5753 5751 5750 5749 5747 5745 5744 5742 5740 5738 5736 5734 5731
5737 5739 5741 5742 5743 5747 5748 5748 5750 5751 5751 5752 5753 5754 5755 5755 5755 5755 5755 5755 5755 5755 5754 5753 5752 5752 5751 5750 5749 5748 5747 5746 5744 5743 5741 5740 5738 5736 5734 5732 5730 5728 5725 5723
5729 5732 5732 5734 5737 5738 5738 5740 5741 5742 5743 5744 5745 5746 5747 5748 5748 5748 5748 5748 5748 5747 5747 5746 5745 5745 5744 5743 5742 5741 5740 5738 5737 5735 5734 5732 5731 5728 5726 5724 5721 5719 5716 5714
5721 5722 5723 5725 5727 5729 5730 5731 5732 5733 5735 5736 5737 5738 5739 5740 5740 5741 5741 5740 5740 5740 5739 5738 5738 5737 5736 5735 5735 5734 5732 5731 5729 5728 5726 5724 5722 5720 5718 5715 5713 5710 5708 5705
5712 5713 5714 5715 5719 5720 5721 5722 5723 5725 5726 5727 5728 5729 5730 5732 5732 5732 5732 5732 5732 5731 5731 5730 5730 5729 5728 5727 5726 5725 5724 5722 5721 5719 5717 5716 5714 5711 5709 5706 5703 5701 5699 5696
5704 5704 5705 5706 5709 5710 5712 5713 5714 5716 5717 5718 5719 5720 5721 5722 5723 5723 5724 5723 5723 5723 5723 5722 5721 5721 5720 5719 5718 5717 5715 5714 5712 5710 5708 5706 5704 5702 5700 5697 5695 5692 5690 5687